カタログに戻る

COSMOS 1801

運用中軍事LEO
NORAD 17145·PAYLOAD·🇷🇺 Russia

打ち上げ Nov 21, 1986 から Plesetsk Cosmodrome

Loading…

次のパス (今後24時間)

TLE

最新Source: Space-Track

元期: Sep 14, 2026, 09:50 UTC

1 17145U 86092H   26257.41023450 -.00000020  00000-0 -21933-4 0  9990
2 17145  74.0108 236.0295 0055209 228.9029 204.6809 12.58855737829661

AllMySatでCOSMOS 1801をリアルタイム追跡

Download on the App Store